[[{"header":{"parameterUnit":"m.s-1","parameterCategory":1,"la1":30.2991,"la2":30.254,"lo1":-89.0895,"lo2":-89.0444,"dy":0.0017,"dx":0.0017,"nx":28,"ny":28,"refTime":"2023-09-15T03:00:00:Z","depth":0,"parameterNumber":2,"parameterNumberName":"U-component_of_WINDS"},"data":[0,0,0,0,0,0,0,0,0,0,0,0,0,0,0,0,0,0,0,0,0,0,0,0,0,0,0,0,0,0,0,0,0,0,0,0,0,0,0,0,0,0,0,0,0,0,0,0,0,0,0,0,0,0,0,0,0,0,-1.9152,-1.9152,0,-1.9133,-1.9133,-1.9133,-1.9021,-1.9019,-1.9016,-1.9013,-1.8997,-1.9,-1.9002,0,0,0,0,0,0,0,0,0,0,0,0,0,-1.9095,-1.9096,-1.9152,-1.9152,-1.9152,-1.9133,-1.9133,-1.9133,-1.9022,-1.9018,-1.9015,-1.9012,-1.8997,-1.8999,-1.9002,0,0,0,0,0,0,0,0,0,0,0,0,0,-1.9102,-1.9097,-1.9152,-1.9094,-1.9089,-1.9133,-1.9133,-1.9133,-1.9022,-1.9018,-1.9014,-1.9011,-1.8996,-1.8999,-1.9002,-1.9102,0,0,-1.9012,-1.9013,0,0,0,0,0,0,0,0,-1.9102,-1.9105,-1.9103,-1.9098,-1.9092,-1.9075,-1.9107,-1.9123,-1.9023,-1.9048,-1.9013,-1.9009,-1.9027,-1.9027,-1.9033,-1.9102,-1.9101,-1.9012,-1.9014,-1.9015,-1.9016,0,0,0,0,0,0,0,-1.9102,-1.9105,-1.9145,-1.9103,-1.9096,-1.907,-1.9066,-1.9109,-1.906,-1.9045,-1.9037,-1.9036,-1.9023,-1.903,-1.9031,-1.9101,-1.9012,-1.9015,-1.9017,-1.9018,-1.925,-1.9254,0,0,0,0,0,0,-1.9109,-1.9105,-1.9145,-1.9144,-1.9087,-1.9074,-1.907,-1.9085,-1.9059,-1.9052,-1.904,-1.9031,-1.9027,-1.9028,-1.9031,-1.9145,-1.9015,-1.9018,-1.902,-1.9245,-1.925,-1.9255,0,0,0,0,0,0,-1.9108,-1.9114,-1.9146,-1.9122,-1.9124,-1.9079,-1.9097,-1.9087,-1.9093,-1.9055,-1.9046,-1.9055,-1.9023,-1.9026,-1.9085,-1.9143,-1.902,-1.9022,-1.924,-1.9247,-1.9253,-1.9376,0,0,0,0,0,0,-1.9107,-1.9114,-1.9151,-1.9124,-1.9126,-1.92,-1.91,-1.9089,-1.9098,-1.9087,-1.9068,-1.906,-1.902,-1.9081,-1.9088,-1.9145,-1.9025,-1.9235,-1.9243,-1.9251,-1.9367,-1.9386,-1.9403,0,0,0,0,0,-1.9105,-1.9188,-1.9154,-1.9159,-1.9172,-1.9204,-1.9205,-1.9156,-1.9104,-1.9141,-1.9116,-1.9061,-1.9136,-1.9088,-1.9095,-1.9154,-1.9231,-1.9241,-1.925,-1.9359,-1.9382,-1.9402,0,0,0,0,0,0,-1.9225,-1.9183,-1.9145,-1.9221,-1.9217,-1.9185,-1.9231,-1.9183,-1.9195,-1.9184,-1.9124,-1.912,-1.9188,-1.9177,-1.9124,-1.9249,-1.9174,-1.9185,-1.9254,-1.9276,-1.9294,-1.9295,-1.9027,0,0,0,0,0,-1.926,-1.9288,-1.9251,-1.9322,-1.9321,-1.9277,-1.9289,-1.9252,-1.9245,-1.9243,-1.9223,-1.922,-1.9242,-1.9258,-1.9277,-1.9365,-1.9359,-1.9409,-1.9427,-1.9442,-1.9452,-1.9497,-1.9519,-1.9287,-1.9287,-1.9286,0,0,-1.9333,-1.9314,-1.9336,-1.9345,-1.9337,-1.9369,-1.9276,-1.9314,-1.9337,-1.9249,-1.9303,-1.9288,-1.9281,-1.9354,-1.9385,-1.9347,-1.9515,-1.9454,-1.9466,-1.9469,-1.9509,-1.9531,-1.9551,-1.9293,-1.9292,-1.9291,0,0,-1.9482,-1.947,-1.9527,-1.9521,-1.951,-1.9479,-1.9493,-1.9468,-1.9454,-1.9507,-1.9441,-1.9469,-1.9509,-1.9506,-1.9509,-1.9656,-1.9606,-1.9664,-1.9758,-1.9802,-1.982,-1.9836,-1.9888,-1.9907,-1.9675,-1.9675,-1.9675,0,-1.9574,-1.9618,-1.9563,-1.9604,-1.961,-1.9531,-1.9588,-1.9585,-1.9582,-1.9588,-1.9544,-1.9592,-1.9582,-1.9652,-1.9688,-1.9694,-1.9708,-1.9666,-1.9822,-1.9837,-1.9851,-1.99,-1.992,-1.9682,-1.9681,-1.9681,-1.968,0,-1.9732,-1.9764,-1.9812,-1.9808,-1.9819,-1.9869,-1.9821,-1.984,-1.9801,-1.9775,-1.983,-1.9814,-1.9828,-1.9842,-1.9805,-1.9907,-1.9884,-1.9832,-1.9755,-1.9881,-1.9926,-1.9944,-1.9692,-1.969,-1.9688,-1.9686,0,0,-1.9958,-1.9921,-1.9939,-1.9936,-1.9917,-1.9941,-1.9987,-1.9998,-2.0015,-2.0015,-2.0052,-2.0087,-2.0039,-2.0043,-2.0006,-2.0044,-2.0161,-1.9988,-1.9986,-2.002,-2.0272,-2.0311,-2.0333,-2.0127,-2.013,-2.0133,-2.0272,0,-2.01,-2.0174,-2.0125,-2.0208,-2.0236,-2.0161,-2.02,-2.0194,-2.0171,-2.0192,-2.0167,-2.0192,-2.0127,-2.0129,-2.0164,-2.0139,-2.021,-2.0128,-2.0161,-2.0163,-2.0165,-2.0357,-2.0398,-2.053,-2.029,-2.0292,-2.0295,0,-2.0276,-2.0281,-2.0367,-2.0341,-2.0351,-2.0387,-2.0393,-2.0415,-2.0405,-2.0386,-2.039,-2.0342,-2.0386,-2.031,-2.0369,-2.0315,-2.0325,-2.0315,-2.0319,-2.032,-2.0237,-2.0363,-2.0571,-2.0591,-2.0322,-2.032,-2.0318,0,-2.0431,-2.046,-2.0514,-2.0514,-2.0485,-2.0512,-2.0502,-2.0488,-2.0498,-2.0504,-2.0509,-2.0521,-2.0528,-2.0538,-2.0495,-2.0444,-2.056,-2.0481,-2.0545,-2.0546,-2.0573,-2.0572,-2.0786,-2.0581,-2.0581,-2.058,-2.058,0,-2.0594,-2.065,-2.0583,-2.0616,-2.0676,-2.0619,-2.068,-2.0661,-2.065,-2.0679,-2.0614,-2.0643,-2.0584,-2.0608,-2.0574,-2.0628,-2.0632,-2.0618,-2.0608,-2.0623,-2.0625,-2.0629,-2.0619,-2.0585,-2.0584,-2.0583,-2.0582,0,-2.0778,-2.0735,-2.0789,-2.0756,-2.0749,-2.0795,-2.0767,-2.0797,-2.0769,-2.0807,-2.0813,-2.077,-2.0793,-2.0751,-2.077,-2.0747,-2.0823,-2.0799,-2.0826,-2.0818,-2.0885,-2.0879,-2.1109,-2.1136,-2.0915,-2.0917,-2.0919,0,-2.0885,-2.0925,-2.0896,-2.091,-2.0903,-2.0927,-2.0935,-2.0881,-2.0893,-2.0885,-2.0916,-2.0934,-2.0945,-2.0987,-2.0958,-2.0972,-2.0948,-2.1028,-2.095,-2.0964,-2.0949,-2.0947,-2.095,-2.1044,-2.1047,-2.1049,-2.1051,0,-2.108,-2.1056,-2.107,-2.1078,-2.109,-2.1093,-2.1092,-2.1108,-2.105,-2.1067,-2.1089,-2.1098,-2.1116,-2.1135,-2.1142,-2.1132,-2.1083,-2.1075,-2.1091,-2.1107,-2.112,-2.1113,-2.0869,-2.107,-2.1068,-2.1067,-2.1066,-2.1065,-2.1227,-2.1259,-2.1243,-2.1261,-2.1254,-2.1254,-2.128,-2.1255,-2.1272,-2.1282,-2.1249,-2.1279,-2.1268,-2.1271,-2.1267,-2.129,-2.1255,-2.1278,-2.1283,-2.129,-2.13,-2.1116,-2.1291,-2.1291,-2.129,-2.129,-2.1289,0,-2.1418,-2.1403,-2.1421,-2.142,-2.1434,-2.1384,-2.138,-2.1396,-2.1423,-2.1416,-2.1428,-2.1453,-2.1471,-2.1443,-2.1456,-2.148,-2.1458,-2.1485,-2.1483,-2.1481,-2.1331,-2.1316,-2.1503,-2.1503,-2.1503,-2.1503,-2.1503,-2.1503,-2.1519,-2.1569,-2.1544,-2.159,-2.1575,-2.1603,-2.1605,-2.1605,-2.1599,-2.163,-2.1643,-2.1624,-2.1609,-2.162,-2.1634,-2.1625,-2.1633,-2.1669,-2.1653,-2.1513,-2.1492,-2.1472,-2.1457,-2.1671,-2.1672,-2.1801,-2.1802,-2.1803]},{"header":{"parameterUnit":"m.s-1","parameterCategory":1,"la1":30.2991,"la2":30.254,"lo1":-89.0895,"lo2":-89.0444,"dy":0.0017,"dx":0.0017,"nx":28,"ny":28,"refTime":"2023-09-15T03:00:00:Z","depth":0,"parameterNumber":3,"parameterNumberName":"V-component_of_WINDS"},"data":[0,0,0,0,0,0,0,0,0,0,0,0,0,0,0,0,0,0,0,0,0,0,0,0,0,0,0,0,0,0,0,0,0,0,0,0,0,0,0,0,0,0,0,0,0,0,0,0,0,0,0,0,0,0,0,0,0,0,-2.4829,-2.483,0,-2.491,-2.491,-2.4911,-2.493,-2.493,-2.4929,-2.4929,-2.5007,-2.5009,-2.5012,0,0,0,0,0,0,0,0,0,0,0,0,0,-2.4687,-2.469,-2.4829,-2.483,-2.4831,-2.4909,-2.4911,-2.4912,-2.493,-2.493,-2.4929,-2.4928,-2.5006,-2.5009,-2.5012,0,0,0,0,0,0,0,0,0,0,0,0,0,-2.4756,-2.4691,-2.4829,-2.485,-2.4853,-2.4909,-2.4911,-2.4912,-2.493,-2.493,-2.4929,-2.4928,-2.5005,-2.5009,-2.5013,-2.5053,0,0,-2.5024,-2.5026,0,0,0,0,0,0,0,0,-2.4752,-2.4762,-2.4846,-2.4849,-2.4852,-2.4909,-2.4889,-2.4959,-2.4931,-2.4901,-2.4928,-2.4928,-2.4975,-2.4981,-2.4998,-2.5056,-2.506,-2.5025,-2.5027,-2.5029,-2.503,0,0,0,0,0,0,0,-2.4748,-2.4758,-2.4861,-2.4847,-2.4851,-2.4854,-2.4863,-2.4903,-2.4941,-2.4903,-2.4905,-2.4914,-2.4976,-2.4994,-2.5,-2.5061,-2.5025,-2.5028,-2.5031,-2.5032,-2.5155,-2.5156,0,0,0,0,0,0,-2.474,-2.4754,-2.4858,-2.4863,-2.4799,-2.4857,-2.4867,-2.4891,-2.4941,-2.4948,-2.4915,-2.4915,-2.4988,-2.4995,-2.5003,-2.5052,-2.5029,-2.5032,-2.5035,-2.5154,-2.5155,-2.5156,0,0,0,0,0,0,-2.4737,-2.4749,-2.4855,-2.4809,-2.4823,-2.486,-2.4888,-2.4893,-2.4911,-2.495,-2.4956,-2.4926,-2.4987,-2.4997,-2.504,-2.5055,-2.5034,-2.5038,-2.5153,-2.5154,-2.5156,-2.5151,0,0,0,0,0,0,-2.4733,-2.4748,-2.4764,-2.4809,-2.4825,-2.4893,-2.4889,-2.4896,-2.4918,-2.4919,-2.4962,-2.4968,-2.4988,-2.5034,-2.5044,-2.506,-2.5041,-2.5152,-2.5153,-2.5155,-2.515,-2.5152,-2.5154,0,0,0,0,0,-2.4727,-2.4759,-2.4765,-2.4778,-2.4847,-2.4893,-2.4902,-2.4925,-2.492,-2.4936,-2.496,-2.4967,-2.5052,-2.5038,-2.505,-2.5067,-2.5151,-2.5153,-2.5155,-2.5149,-2.5152,-2.5154,0,0,0,0,0,0,-2.4714,-2.4766,-2.4773,-2.4821,-2.4853,-2.4897,-2.4918,-2.4927,-2.496,-2.4959,-2.4985,-2.4994,-2.5035,-2.5055,-2.504,-2.5107,-2.5101,-2.5105,-2.5093,-2.5096,-2.5097,-2.5091,-2.5044,0,0,0,0,0,-2.4717,-2.4751,-2.4794,-2.4832,-2.4848,-2.488,-2.4901,-2.4916,-2.4949,-2.4963,-2.499,-2.5021,-2.5055,-2.5076,-2.511,-2.5153,-2.5162,-2.517,-2.5172,-2.5174,-2.5177,-2.52,-2.5204,-2.5163,-2.5163,-2.5163,0,0,-2.4722,-2.4755,-2.4775,-2.483,-2.4857,-2.489,-2.4891,-2.4927,-2.4952,-2.4968,-2.501,-2.5031,-2.5068,-2.5111,-2.5131,-2.5129,-2.519,-2.5177,-2.5177,-2.518,-2.5203,-2.5207,-2.521,-2.5164,-2.5164,-2.5164,0,0,-2.475,-2.4779,-2.4813,-2.484,-2.488,-2.4901,-2.4909,-2.4952,-2.4967,-2.501,-2.5023,-2.5052,-2.5109,-2.5134,-2.5155,-2.5191,-2.5198,-2.5201,-2.5211,-2.5233,-2.5236,-2.5239,-2.5251,-2.5255,-2.5204,-2.5204,-2.5204,0,-2.4751,-2.4804,-2.4829,-2.4864,-2.4887,-2.4905,-2.4938,-2.4963,-2.5011,-2.5026,-2.5023,-2.5095,-2.5121,-2.517,-2.5179,-2.5195,-2.5204,-2.5196,-2.5234,-2.5237,-2.524,-2.5252,-2.5256,-2.5204,-2.5204,-2.5204,-2.5204,0,-2.4803,-2.4839,-2.4862,-2.491,-2.4936,-2.497,-2.4998,-2.5021,-2.5033,-2.5054,-2.5097,-2.5129,-2.5168,-2.5181,-2.5193,-2.5231,-2.5228,-2.5229,-2.5223,-2.5244,-2.5255,-2.5259,-2.5204,-2.5204,-2.5204,-2.5204,0,0,-2.4824,-2.4885,-2.4893,-2.4914,-2.496,-2.4988,-2.5022,-2.5062,-2.508,-2.5113,-2.5141,-2.519,-2.5191,-2.5214,-2.5229,-2.5248,-2.5273,-2.5247,-2.5248,-2.525,-2.5316,-2.5314,-2.5318,-2.5279,-2.528,-2.528,-2.5312,0,-2.4856,-2.492,-2.4943,-2.4995,-2.5027,-2.5044,-2.5073,-2.5104,-2.5124,-2.5153,-2.5175,-2.5209,-2.5209,-2.5222,-2.5243,-2.5266,-2.5287,-2.5264,-2.5303,-2.5305,-2.5293,-2.5324,-2.5323,-2.5351,-2.5317,-2.5318,-2.5318,0,-2.4903,-2.4937,-2.4992,-2.5033,-2.5047,-2.5074,-2.5111,-2.514,-2.5174,-2.5187,-2.5213,-2.5226,-2.5261,-2.5253,-2.5301,-2.5285,-2.5302,-2.5316,-2.5318,-2.5321,-2.5312,-2.5328,-2.5361,-2.5365,-2.5325,-2.5325,-2.5324,0,-2.4911,-2.4971,-2.5011,-2.5029,-2.5078,-2.5096,-2.5117,-2.5151,-2.5173,-2.5205,-2.5219,-2.5255,-2.5274,-2.53,-2.5322,-2.5315,-2.5367,-2.5361,-2.5377,-2.5377,-2.5387,-2.5386,-2.5422,-2.54,-2.54,-2.54,-2.54,0,-2.4944,-2.4976,-2.5016,-2.504,-2.5077,-2.5102,-2.5137,-2.5159,-2.5189,-2.5217,-2.5233,-2.5258,-2.5286,-2.5315,-2.5332,-2.5368,-2.5377,-2.5387,-2.5391,-2.5385,-2.5384,-2.5396,-2.5394,-2.5401,-2.5401,-2.54,-2.54,0,-2.4959,-2.4987,-2.5032,-2.5074,-2.5086,-2.5111,-2.5147,-2.517,-2.5191,-2.5227,-2.5236,-2.5268,-2.5303,-2.5328,-2.5372,-2.5384,-2.5422,-2.5426,-2.5411,-2.5413,-2.5427,-2.5425,-2.5472,-2.5479,-2.5452,-2.5453,-2.5453,0,-2.4978,-2.5003,-2.5049,-2.507,-2.5091,-2.5124,-2.5146,-2.5172,-2.5195,-2.5235,-2.5253,-2.529,-2.532,-2.5374,-2.54,-2.5434,-2.5439,-2.5453,-2.5444,-2.5437,-2.5437,-2.5435,-2.5437,-2.5454,-2.5454,-2.5454,-2.5454,0,-2.5007,-2.502,-2.5053,-2.509,-2.5117,-2.5147,-2.5178,-2.5193,-2.5224,-2.5248,-2.5285,-2.5308,-2.5354,-2.5389,-2.5425,-2.5445,-2.5454,-2.5457,-2.5462,-2.5456,-2.5446,-2.545,-2.5413,-2.5456,-2.5456,-2.5455,-2.5455,-2.5455,-2.5024,-2.5047,-2.5083,-2.5119,-2.5145,-2.5173,-2.5197,-2.5221,-2.5252,-2.5292,-2.5305,-2.5342,-2.5374,-2.5424,-2.5444,-2.5473,-2.5472,-2.548,-2.5482,-2.5483,-2.5482,-2.5442,-2.5479,-2.5479,-2.5479,-2.5479,-2.5479,0,-2.5054,-2.5078,-2.511,-2.5153,-2.5181,-2.5189,-2.5222,-2.5244,-2.5277,-2.5307,-2.5337,-2.5378,-2.5412,-2.5441,-2.5475,-2.5492,-2.5497,-2.55,-2.5499,-2.5503,-2.5481,-2.5473,-2.5496,-2.5496,-2.5496,-2.5496,-2.5496,-2.5496,-2.5073,-2.5112,-2.5128,-2.518,-2.5203,-2.5241,-2.5259,-2.5284,-2.5308,-2.5354,-2.5382,-2.5402,-2.5431,-2.5468,-2.5498,-2.5506,-2.5517,-2.5519,-2.5528,-2.5507,-2.5505,-2.5503,-2.5495,-2.5522,-2.5522,-2.5547,-2.5547,-2.5547]}]]